Preview of NWS' New Version of Forecast
This preview is not operational and should not be used for support decisions.

Regional Weather Roundup (RWR)

Issued by National Weather Service (NWS)

                            
000
ASUS44 KJAN 170410
RWRMS 

MISSISSIPPI HOURLY WEATHER ROUNDUP
NATIONAL WEATHER SERVICE JACKSON MS
1000 PM CST SAT FEB 16 2019

NOTE: "FAIR: INDICATES FEW OR NO CLOUDS BELOW 12,000 FEET WITH NO
SIGNIFICANT WEATHER AND/OR OBSTRUCTIONS TO VISIBILITY.

MSZ001>002-007>008-010>013-018>021-025>028-034>036-170500-
NORTHWEST MISSISSIPPI
  
CITY           SKY/WX    TMP DP  RH WIND       PRES   REMARKS
BATESVILLE     CLOUDY    41  37  87 CALM      29.81R                  
CLARKSDALE     CLOUDY    43  43 100 E6        29.80F FOG              
CLEVELAND      CLOUDY    42  42 100 E6        29.79F                  
GREENWOOD      CLOUDY    45  41  86 NE6       29.80R                  
GREENVILLE     CLOUDY    43  40  89 NE6       29.78S                  
OLIVE BRANCH   CLOUDY    37  37 100 SE8       29.80S WCI  31          
OXFORD         CLOUDY    39  37  93 SE8       29.81F WCI  34          
TUNICA           N/A     39  37  93 SE6       29.82S WCI  35          
WINONA         CLOUDY    43  41  94 NE3       29.80R                  
$$

MSZ003>006-009-014>017-022>024-029>033-037>039-170500-
NORTHEAST MISSISSIPPI
  
CITY           SKY/WX    TMP DP  RH WIND       PRES   REMARKS
ABERDEEN       CLOUDY    43  43 100 E5        29.84R                  
COLUMBUS AFB   CLOUDY    46  42  89 SE6       29.81S                  
CORINTH        CLOUDY    41  37  87 E8        29.83S                  
GOLDN TRIANGLE CLOUDY    45  43  93 SE12      29.82F                  
STARKVILLE     CLOUDY    43  41  93 E5        29.82F                  
TUPELO         CLOUDY    43  38  82 E3        29.83R                  
$$

MSZ040-058-170500-
CENTRAL MISSISSIPPI
  
CITY           SKY/WX    TMP DP  RH WIND       PRES   REMARKS
JACKSON INTL   FAIR      51  47  86 SE3       29.77S                  
JACKSON HAWKNS MOCLDY    51  48  89 SE7       29.77S                  
MADISON        FAIR      48  48 100 CALM      29.76S                  
MERIDIAN KEY   CLOUDY    49  44  83 E5        29.82S                  
MERIDIAN NAS   FAIR      47  44  90 CALM      29.83F                  
RAYMOND          N/A     52  50  93 SE5       29.76S                  
VICKSBURG VKS  CLOUDY    52  46  82 CALM      29.76S                  
$$

MSZ059>079-170500-
SOUTH MISSISSIPPI
  
CITY           SKY/WX    TMP DP  RH WIND       PRES   REMARKS
HATTIESBURG    CLOUDY    63  58  83 SE6       29.80F                  
LAUREL         MOCLDY    57  53  85 E6        29.81F                  
MCCOMB         CLOUDY    61  53  75 SE5       29.77S                  
NATCHEZ        MOCLDY    59  51  75 SE9       29.75F                  
PINE BELT      CLOUDY    61  57  87 E6        29.81S                  
$$

MSZ080>082-170500-
COASTAL MISSISSIPPI
  
CITY           SKY/WX    TMP DP  RH WIND       PRES   REMARKS
BILOXI         CLOUDY    64  64 100 S5        29.80F FOG              
PASCAGOULA     CLOUDY    67  64  90 CALM      29.81F                  
GULFPORT       FOG       65  64  97 S7        29.80S VSB 1/2          
$$

LAZ007>009-015>016-023>026-170500-
NORTHEAST LOUISIANA
  
CITY           SKY/WX    TMP DP  RH WIND       PRES   REMARKS
BASTROP        CLOUDY    44  43  95 NE3       29.77F                  
TALLULAH/VBURG CLOUDY    50  45  83 N3        29.77R                  
VIDALIA        MOCLDY    50  45  81 CALM      29.75S                  
$$